Regional Weather Roundup
Issued by NWS

Home | Current Version | Previous Version | Graphics & Text | Print | Product List | Glossary On
Versions: 1 2 3 4 5 6 7 8 9 10 11 12 13 14 15 16 17 18 19 20 21 22 23 24 25 26 27
000
ASUS45 KSLC 270210
RWRUT

UTAH REGIONAL WEATHER ROUNDUP
NATIONAL WEATHER SERVICE SALT LAKE CITY UT
800 PM MDT FRI MAY 26 2017

UTZ001>011-023>025-270300-

NORTHERN UTAH

CITY           SKY/WX    TMP DP  RH WIND       PRES   REMARKS
BRIGHAM CITY   CLEAR     60  34  37 N17G23    29.99R
HILL AFB       CLEAR     60  35  38 N13       29.98R
LOGAN          MOCLDY    58  41  53 NW14      29.99R
OGDEN          CLEAR     60  36  40 N12G22    29.96R
SALT LAKE CITY PTCLDY    66  33  29 NW13      29.95R
TOOELE VALLEY  PTCLDY    61  37  41 N12       29.98R
WENDOVER       CLEAR     64  30  27 N14       29.97R
WEST JORDAN    PTCLDY    61  39  44 NW14G25   29.98R

$$

UTZ011>015-024>027-270300-

CENTRAL/NORTHEAST UTAH

CITY           SKY/WX    TMP DP  RH WIND       PRES   REMARKS
PROVO AIRPORT  MOCLDY    62  32  32 N16G28    29.96R
MOAB/CANYONLAN MOCLDY    78  19  11 SW23G29   29.72S
DELTA          MOCLDY    63  32  31 NE15G22   29.91R
PRICE          PTCLDY    65  31  28 NW20G30   29.88R
ROOSEVELT      CLOUDY    64  28  25 NW28G36   29.86R
VERNAL         PTCLDY    64  33  31 E18G28    29.84R

$$

UTZ013>016-019>022-027-270300-

SOUTHERN UTAH

CITY           SKY/WX    TMP DP  RH WIND       PRES   REMARKS
BRYCE CANYON   CLEAR     61  19  19 SW15G23   30.02R
CEDAR CITY     CLEAR     70  21  15 S21G28    29.89S
MILFORD        LGT RAIN  68  31  25 N23G31    29.88R
ST GEORGE      MOCLDY    85  24  11 SW13      29.77S
HANKSVILLE     PTCLDY    81  19  10 W16G37    29.75R
BLANDING       CLEAR     72  16  11 SW9       29.96R

$$

REGIONAL REPORTS     COLORADO/ARIZONA

CITY           SKY/WX    TMP DP  RH WIND       PRES   REMARKS
CRAIG, CO      CLOUDY    52  38  58 N12G20    30.01R
GRAND JUNCTION CLEAR     76  18  11 W10       29.76R
RIFLE, CO      PTCLDY    74   5   7 SW12      29.80R
MONTROSE, CO   CLEAR     73  10   9 SW13G18   29.87R
CORTEZ, CO     CLEAR     70  14  11 SW10      29.92R
COLORADO CITY    N/A     77  25  14 SW14      29.93S
PAGE, AZ       CLEAR     82  17   9 W13G21    29.81R
GRAND CANYON   CLEAR     66  19  16 SW14G29   30.04R
KINGMAN, AZ    CLEAR     78  23  13 S15       29.89R
FLAGSTAFF, AZ  CLEAR     61  17  18 SW20G28   30.08R

$$

REGIONAL REPORTS    NEVADA/IDAHO/WYOMING

CITY           SKY/WX    TMP DP  RH WIND       PRES   REMARKS
LAS VEGAS, NV  CLEAR     87  23   9 SW13G25   29.72R
ELY, NY        MOCLDY    61  24  24 N12G23    29.99R
ELKO, NV       SUNNY     61  28  28 N9        30.03R
POCATELLO, ID  PTCLDY    49  41  74 W5        30.04R
BURLEY, ID     PTCLDY    52  43  71 SW3       30.03R
FORT BRIDGER,    N/A     52  31  44 NW13G18   30.03R
EVANSTON, WY   CLOUDY    50  30  46 W14       30.02R
ROCK SPRINGS,  CLOUDY    53  29  39 NW18      29.97R
KEMMERER, WY     N/A     46  30  53 W20       30.01R

$$




USA.gov is the U.S. government's official web portal to all federal, state and local government web resources and services.